Location: East Arcadia
(34.1056°N, 118.0176°W)
Time: 00:29:48
(UTC+00:00)

Cosmos 1726 - Pass Details

Date: 01 April 2023
Orbit: 447 x 462 km, 82.5° (Epoch: 08 June)

Event Time Altitude Azimuth Distance (km) Brightness Sun altitude
Rises 03:24:36 0° 228° (SW) 2,452 6.1 -15.5°
Reaches altitude 10° 03:27:45 10° 261° (W) 1,592 5.7 -16.1°
Drops below altitude 10° 03:30:38 10° 310° (NW) 1,604 5.8 -16.7°
Maximum altitude 13:20:38 38° 80° (E) 741 3.9 -4.7°
Sets 13:26:09 0° 159° (SSE) 2,502 5.9 -3.6°
